Location: Bassano
(45.7667°N, 11.7333°E)
Time: 03:00:03
(UTC+00:00)

STARLINK-1302 - Pass Details

Date: 07 June 2020
Orbit: 548 x 551 km, 53.0° (Epoch: 06 July)

Event Time Altitude Azimuth Distance (km) Brightness Sun altitude
Exits shadow 01:31:43 23° 236° (WSW) 1,180 4.8 -14.5°
Maximum altitude 01:34:12 88° 144° (SE) 554 3.6 -14.2°
Drops below altitude 10° 01:38:22 10° 59° (ENE) 1,824 7.4 -13.8°
Sets 01:40:36 0° 59° (ENE) 2,720 8.5 -13.6°
